| time (UTC) | temp F | wind direction | speed MPH | gust MPH | rain 1hr in | rain 24hr in | rain mn in | humidity % | barometer mb |
| 20260831084836 | 54 | 245 | 3.0 | 9.0 | 0.00 | 0.00 | 0.00 | 10 | 957.5 |
| 20260831084336 | 53 | 287 | 3.0 | 9.0 | 0.00 | 0.00 | 0.00 | 10 | 957.4 |
| 20260831083836 | 53 | 282 | 3.0 | 6.0 | 0.00 | 0.00 | 0.00 | 10 | 957.5 |
| 20260831083336 | 53 | 249 | 2.0 | 6.0 | 0.00 | 0.00 | 0.00 | 10 | 957.4 |
| 20260831082836 | 53 | 303 | 3.0 | 9.0 | 0.00 | 0.00 | 0.00 | 10 | 957.4 |
| 20260831082336 | 53 | 266 | 2.0 | 9.0 | 0.00 | 0.00 | 0.00 | 10 | 957.4 |
| 20260831081836 | 53 | 232 | 2.0 | 8.0 | 0.00 | 0.00 | 0.00 | 10 | 957.5 |
| 20260831081336 | 53 | 267 | 3.0 | 8.0 | 0.00 | 0.00 | 0.00 | 10 | 957.7 |
| 20260831080836 | 53 | 242 | 3.0 | 8.0 | 0.00 | 0.00 | 0.00 | 10 | 957.5 |
| 20260831080336 | 53 | 226 | 2.0 | 10.0 | 0.00 | 0.00 | 0.00 | 10 | 957.6 |
| 20260831075836 | 53 | 234 | 2.0 | 10.0 | 0.00 | 0.00 | 0.00 | 10 | 957.8 |
| 20260831075336 | 53 | 229 | 2.0 | 6.0 | 0.00 | 0.00 | 0.00 | 10 | 957.7 |
| 20260831074835 | 52 | 258 | 2.0 | 6.0 | 0.00 | 0.00 | 0.00 | 10 | 957.6 |
| 20260831074335 | 52 | 246 | 3.0 | 6.0 | 0.00 | 0.00 | 0.00 | 10 | 957.7 |
| 20260831073835 | 52 | 236 | 3.0 | 6.0 | 0.00 | 0.00 | 0.00 | 10 | 957.6 |
| 20260831073335 | 52 | 213 | 3.0 | 9.0 | 0.00 | 0.00 | 0.00 | 10 | 957.7 |
| 20260831072835 | 52 | 270 | 4.0 | 10.0 | 0.00 | 0.00 | 0.00 | 10 | 957.7 |
| 20260831072335 | 52 | 270 | 5.0 | 10.0 | 0.00 | 0.00 | 0.00 | 10 | 957.6 |
| 20260831071835 | 52 | 330 | 5.0 | 12.0 | 0.00 | 0.00 | 0.00 | 10 | 957.5 |
| 20260831071335 | 52 | 262 | 5.0 | 12.0 | 0.00 | 0.00 | 0.00 | 10 | 957.5 |
| 20260831070835 | 52 | 272 | 5.0 | 12.0 | 0.00 | 0.00 | 0.00 | 10 | 957.6 |
| 20260831070335 | 52 | 324 | 4.0 | 10.0 | 0.00 | 0.00 | 0.00 | 10 | 957.6 |
| 20260831065835 | 52 | 241 | 4.0 | 10.0 | 0.00 | 0.00 | 0.00 | 10 | 957.6 |
| 20260831065335 | 52 | 294 | 4.0 | 11.0 | 0.00 | 0.00 | 0.00 | 10 | 957.7 |
| 20260831064835 | 52 | 247 | 5.0 | 11.0 | 0.00 | 0.00 | 0.00 | 10 | 957.6 |
| 20260831064335 | 52 | 269 | 5.0 | 11.0 | 0.00 | 0.00 | 0.00 | 10 | 957.6 |
| 20260831063835 | 52 | 274 | 4.0 | 10.0 | 0.00 | 0.00 | 0.00 | 10 | 957.6 |
| 20260831063335 | 52 | 282 | 4.0 | 10.0 | 0.00 | 0.00 | 0.00 | 10 | 957.6 |
| 20260831062834 | 52 | 284 | 4.0 | 10.0 | 0.00 | 0.00 | 0.00 | 10 | 957.6 |
| 20260831062334 | 52 | 322 | 4.0 | 10.0 | 0.00 | 0.00 | 0.00 | 10 | 957.6 |
| 20260831061834 | 52 | 249 | 4.0 | 10.0 | 0.00 | 0.00 | 0.00 | 10 | 957.6 |
| 20260831061334 | 52 | 335 | 3.0 | 8.0 | 0.00 | 0.00 | 0.00 | 10 | 957.5 |
| 20260831060834 | 52 | 274 | 3.0 | 8.0 | 0.00 | 0.00 | 0.00 | 10 | 957.7 |
| 20260831060334 | 52 | 252 | 3.0 | 8.0 | 0.00 | 0.00 | 0.00 | 10 | 957.6 |
| 20260831055834 | 52 | 249 | 3.0 | 9.0 | 0.00 | 0.00 | 0.00 | 10 | 957.5 |
| 20260831055334 | 52 | 260 | 3.0 | 9.0 | 0.00 | 0.00 | 0.00 | 10 | 957.5 |
| 20260831054834 | 52 | 218 | 2.0 | 6.0 | 0.00 | 0.00 | 0.00 | 10 | 957.7 |
| 20260831054304 | 52 | 185 | 2.0 | 7.0 | 0.00 | 0.00 | 0.00 | 10 | 957.6 |
| 20260831053804 | 52 | 276 | 2.0 | 7.0 | 0.00 | 0.00 | 0.00 | 10 | 957.7 |
| 20260831053304 | 52 | 329 | 3.0 | 7.0 | 0.00 | 0.00 | 0.00 | 10 | 957.7 |
| 20260831052804 | 52 | 261 | 2.0 | 10.0 | 0.00 | 0.00 | 0.00 | 10 | 957.7 |
| 20260831052306 | 52 | 246 | 2.0 | 10.0 | 0.00 | 0.00 | 0.00 | 10 | 957.7 |
| 20260831051804 | 53 | 260 | 2.0 | 9.0 | 0.00 | 0.00 | 0.00 | 10 | 957.6 |
| 20260831051304 | 52 | 257 | 2.0 | 6.0 | 0.00 | 0.00 | 0.00 | 10 | 957.6 |
| 20260831050804 | 52 | 282 | 2.0 | 5.0 | 0.00 | 0.00 | 0.00 | 10 | 957.6 |
| 20260831050303 | 53 | 237 | 1.0 | 4.0 | 0.00 | 0.00 | 0.00 | 10 | 957.7 |
| 20260831045803 | 53 | 89 | 1.0 | 5.0 | 0.00 | 0.00 | 0.00 | 10 | 957.8 |
| 20260831045306 | 53 | 278 | 1.0 | 5.0 | 0.00 | 0.00 | 0.00 | 10 | 957.7 |
| 20260831044803 | 52 | 253 | 1.0 | 5.0 | 0.00 | 0.00 | 0.00 | 10 | 957.8 |
| 20260831044303 | 52 | 178 | 1.0 | 5.0 | 0.00 | 0.00 | 0.00 | 10 | 957.8 |
| 20260831043803 | 52 | 246 | 1.0 | 5.0 | 0.00 | 0.00 | 0.00 | 10 | 957.7 |
| 20260831043303 | 52 | 174 | 2.0 | 6.0 | 0.00 | 0.00 | 0.00 | 10 | 957.7 |
| 20260831042803 | 52 | 240 | 2.0 | 9.0 | 0.00 | 0.00 | 0.00 | 10 | 957.8 |
| 20260831042306 | 52 | 128 | 3.0 | 9.0 | 0.00 | 0.00 | 0.00 | 10 | 957.7 |
| 20260831041803 | 52 | 238 | 4.0 | 9.0 | 0.00 | 0.00 | 0.00 | 10 | 957.7 |
| 20260831041303 | 52 | 288 | 4.0 | 8.0 | 0.00 | 0.00 | 0.00 | 10 | 957.7 |
| 20260831040803 | 53 | 285 | 4.0 | 7.0 | 0.00 | 0.00 | 0.00 | 10 | 957.5 |
| 20260831040303 | 53 | 292 | 3.0 | 6.0 | 0.00 | 0.00 | 0.00 | 10 | 957.6 |
| 20260831035803 | 53 | 264 | 2.0 | 5.0 | 0.00 | 0.00 | 0.00 | 10 | 957.6 |
| 20260831035306 | 53 | 292 | 2.0 | 5.0 | 0.00 | 0.00 | 0.00 | 10 | 957.6 |
| 20260831034802 | 53 | 241 | 1.0 | 5.0 | 0.00 | 0.00 | 0.00 | 10 | 957.8 |
| 20260831034302 | 53 | 290 | 1.0 | 4.0 | 0.00 | 0.00 | 0.00 | 10 | 957.6 |
| 20260831033802 | 53 | 229 | 1.0 | 4.0 | 0.00 | 0.00 | 0.00 | 10 | 957.7 |
| 20260831033302 | 53 | 231 | 2.0 | 6.0 | 0.00 | 0.00 | 0.00 | 10 | 957.8 |
| 20260831032802 | 53 | 199 | 2.0 | 6.0 | 0.00 | 0.00 | 0.00 | 10 | 957.9 |
| 20260831032306 | 53 | 262 | 1.0 | 6.0 | 0.00 | 0.00 | 0.00 | 10 | 957.9 |
| 20260831031802 | 53 | 114 | 2.0 | 6.0 | 0.00 | 0.00 | 0.00 | 10 | 957.9 |
| 20260831031302 | 53 | 328 | 2.0 | 6.0 | 0.00 | 0.00 | 0.00 | 10 | 957.9 |
| 20260831030802 | 53 | 254 | 2.0 | 8.0 | 0.00 | 0.00 | 0.00 | 10 | 957.9 |
| 20260831030302 | 53 | 267 | 2.0 | 8.0 | 0.00 | 0.00 | 0.00 | 10 | 957.8 |
| 20260831025802 | 53 | 235 | 2.0 | 8.0 | 0.00 | 0.00 | 0.00 | 10 | 957.7 |
| 20260831025306 | 53 | 300 | 2.0 | 6.0 | 0.00 | 0.00 | 0.00 | 10 | 957.8 |
| 20260831024802 | 53 | 274 | 2.0 | 6.0 | 0.00 | 0.00 | 0.00 | 10 | 957.7 |
| 20260831024302 | 53 | 315 | 3.0 | 7.0 | 0.00 | 0.00 | 0.00 | 10 | 957.7 |
| 20260831023801 | 54 | 277 | 3.0 | 7.0 | 0.00 | 0.00 | 0.00 | 99 | 957.7 |
| 20260831023301 | 54 | 239 | 3.0 | 7.0 | 0.00 | 0.00 | 0.00 | 98 | 957.8 |
| 20260831022801 | 54 | 252 | 2.0 | 8.0 | 0.00 | 0.00 | 0.00 | 98 | 957.8 |
| 20260831022301 | 54 | 284 | 3.0 | 10.0 | 0.00 | 0.00 | 0.00 | 98 | 957.8 |
| 20260831021801 | 54 | 256 | 3.0 | 10.0 | 0.00 | 0.00 | 0.00 | 97 | 957.8 |
| 20260831021301 | 54 | 240 | 3.0 | 7.0 | 0.00 | 0.00 | 0.00 | 97 | 957.9 |
| 20260831020801 | 54 | 249 | 3.0 | 7.0 | 0.00 | 0.00 | 0.00 | 97 | 957.8 |
| 20260831020301 | 55 | 201 | 2.0 | 6.0 | 0.00 | 0.00 | 0.00 | 97 | 957.8 |
| 20260831015801 | 55 | 205 | 2.0 | 6.0 | 0.00 | 0.00 | 0.00 | 97 | 957.9 |
| 20260831015301 | 55 | 226 | 2.0 | 7.0 | 0.00 | 0.00 | 0.00 | 97 | 958.0 |
| 20260831014801 | 55 | 246 | 3.0 | 7.0 | 0.00 | 0.00 | 0.00 | 97 | 958.0 |
| 20260831014301 | 55 | 197 | 3.0 | 6.0 | 0.00 | 0.00 | 0.00 | 97 | 958.1 |
| 20260831013801 | 55 | 220 | 2.0 | 6.0 | 0.00 | 0.00 | 0.00 | 97 | 958.1 |
| 20260831013301 | 55 | 215 | 2.0 | 6.0 | 0.00 | 0.00 | 0.00 | 97 | 958.1 |
| 20260831012801 | 55 | 154 | 2.0 | 6.0 | 0.00 | 0.00 | 0.00 | 97 | 958.1 |
| 20260831012300 | 55 | 228 | 2.0 | 7.0 | 0.00 | 0.00 | 0.00 | 97 | 958.0 |
| 20260831011800 | 55 | 226 | 2.0 | 7.0 | 0.00 | 0.00 | 0.00 | 97 | 957.9 |
| 20260831011300 | 55 | 19 | 2.0 | 6.0 | 0.00 | 0.00 | 0.00 | 97 | 958.0 |
| 20260831010800 | 55 | 188 | 2.0 | 8.0 | 0.00 | 0.00 | 0.00 | 97 | 957.9 |
| 20260831010300 | 55 | 170 | 2.0 | 8.0 | 0.00 | 0.00 | 0.00 | 97 | 957.9 |
| 20260831005800 | 55 | 111 | 2.0 | 6.0 | 0.00 | 0.00 | 0.00 | 97 | 957.9 |
| 20260831005300 | 55 | 233 | 2.0 | 5.0 | 0.00 | 0.00 | 0.00 | 97 | 957.9 |
| 20260831004800 | 55 | 134 | 2.0 | 5.0 | 0.00 | 0.00 | 0.00 | 97 | 957.9 |
| 20260831004300 | 55 | 235 | 2.0 | 5.0 | 0.00 | 0.00 | 0.00 | 97 | 958.1 |
| 20260831003800 | 55 | 240 | 2.0 | 4.0 | 0.00 | 0.00 | 0.00 | 97 | 958.0 |
| 20260831003300 | 55 | 131 | 2.0 | 5.0 | 0.00 | 0.00 | 0.00 | 98 | 957.9 |
| 20260831002800 | 55 | 235 | 2.0 | 7.0 | 0.00 | 0.00 | 0.00 | 98 | 957.9 |
| 20260831002300 | 55 | 254 | 2.0 | 7.0 | 0.00 | 0.00 | 0.00 | 97 | 957.9 |
| 20260831001800 | 55 | 237 | 2.0 | 7.0 | 0.00 | 0.00 | 0.00 | 97 | 957.9 |
| 20260831001259 | 55 | 114 | 2.0 | 7.0 | 0.00 | 0.00 | 0.00 | 97 | 958.0 |
| 20260831000759 | 55 | 280 | 2.0 | 7.0 | 0.00 | 0.00 | 0.00 | 97 | 957.9 |
| 20260831000259 | 56 | 237 | 2.0 | 7.0 | 0.00 | 0.00 | 0.00 | 97 | 957.9 |
| 20260830235759 | 56 | 127 | 1.0 | 5.0 | 0.00 | 0.00 | 0.00 | 97 | 957.9 |
| 20260830235259 | 56 | 165 | 1.0 | 4.0 | 0.00 | 0.00 | 0.00 | 97 | 958.0 |
| 20260830234759 | 56 | 232 | 1.0 | 6.0 | 0.00 | 0.00 | 0.00 | 98 | 958.0 |
| 20260830234259 | 56 | 109 | 1.0 | 6.0 | 0.00 | 0.00 | 0.00 | 98 | 958.0 |
| 20260830233759 | 56 | 129 | 1.0 | 5.0 | 0.00 | 0.00 | 0.00 | 98 | 958.0 |
| 20260830233259 | 56 | 70 | 2.0 | 6.0 | 0.00 | 0.00 | 0.00 | 98 | 958.0 |
| 20260830232759 | 56 | 104 | 2.0 | 6.0 | 0.00 | 0.00 | 0.00 | 98 | 958.0 |
| 20260830232259 | 56 | 236 | 1.0 | 5.0 | 0.00 | 0.00 | 0.00 | 98 | 958.0 |
| 20260830231759 | 56 | 248 | 1.0 | 4.0 | 0.00 | 0.00 | 0.00 | 98 | 958.0 |
| 20260830231259 | 56 | 91 | 1.0 | 4.0 | 0.00 | 0.00 | 0.00 | 98 | 958.0 |
| 20260830230758 | 55 | 112 | 1.0 | 4.0 | 0.00 | 0.00 | 0.00 | 99 | 958.0 |
| 20260830230258 | 55 | 154 | 2.0 | 6.0 | 0.00 | 0.00 | 0.00 | 99 | 958.1 |
| 20260830225758 | 55 | 149 | 2.0 | 6.0 | 0.00 | 0.00 | 0.00 | 99 | 957.9 |
| 20260830225258 | 55 | 233 | 2.0 | 7.0 | 0.00 | 0.00 | 0.00 | 98 | 957.9 |
| 20260830224758 | 55 | 242 | 2.0 | 7.0 | 0.00 | 0.00 | 0.00 | 98 | 957.9 |
| 20260830224258 | 55 | 152 | 2.0 | 7.0 | 0.00 | 0.00 | 0.00 | 98 | 958.0 |
| 20260830223758 | 55 | 125 | 2.0 | 9.0 | 0.00 | 0.00 | 0.00 | 98 | 957.9 |
| 20260830223258 | 55 | 128 | 2.0 | 9.0 | 0.00 | 0.00 | 0.00 | 98 | 957.9 |
| 20260830222758 | 55 | 192 | 2.0 | 6.0 | 0.00 | 0.00 | 0.00 | 98 | 957.9 |
| 20260830222258 | 55 | 229 | 2.0 | 6.0 | 0.00 | 0.00 | 0.00 | 98 | 957.9 |
| 20260830221758 | 55 | 246 | 3.0 | 7.0 | 0.00 | 0.00 | 0.00 | 99 | 957.9 |
| 20260830221258 | 55 | 225 | 3.0 | 7.0 | 0.00 | 0.00 | 0.00 | 99 | 957.9 |
| 20260830220758 | 55 | 204 | 3.0 | 7.0 | 0.00 | 0.00 | 0.00 | 99 | 957.9 |
| 20260830220258 | 55 | 224 | 3.0 | 7.0 | 0.00 | 0.00 | 0.00 | 99 | 957.8 |
| 20260830215758 | 55 | 210 | 2.0 | 6.0 | 0.00 | 0.00 | 0.00 | 99 | 957.9 |
| 20260830215258 | 55 | 144 | 3.0 | 6.0 | 0.00 | 0.00 | 0.00 | 99 | 957.9 |
| 20260830214758 | 55 | 203 | 3.0 | 6.0 | 0.00 | 0.00 | 0.00 | 99 | 957.8 |
| 20260830214257 | 55 | 199 | 3.0 | 8.0 | 0.00 | 0.00 | 0.00 | 99 | 957.8 |
| 20260830213757 | 55 | 234 | 4.0 | 9.0 | 0.00 | 0.00 | 0.00 | 98 | 957.9 |
| 20260830213257 | 56 | 226 | 3.0 | 11.0 | 0.00 | 0.00 | 0.00 | 98 | 957.9 |
| 20260830212757 | 56 | 222 | 3.0 | 11.0 | 0.00 | 0.00 | 0.00 | 98 | 957.8 |
| 20260830212257 | 56 | 213 | 2.0 | 8.0 | 0.00 | 0.00 | 0.00 | 98 | 958.0 |
| 20260830211757 | 56 | 119 | 2.0 | 6.0 | 0.00 | 0.00 | 0.00 | 98 | 958.0 |
| 20260830211257 | 56 | 81 | 2.0 | 8.0 | 0.00 | 0.00 | 0.00 | 97 | 958.0 |
| 20260830210757 | 56 | 182 | 2.0 | 8.0 | 0.00 | 0.00 | 0.00 | 97 | 958.0 |
| 20260830210257 | 57 | 229 | 1.0 | 8.0 | 0.00 | 0.00 | 0.00 | 96 | 958.0 |
| 20260830205757 | 57 | 122 | 1.0 | 5.0 | 0.00 | 0.00 | 0.00 | 96 | 958.0 |
| 20260830205257 | 58 | 88 | 0.0 | 3.0 | 0.00 | 0.00 | 0.00 | 97 | 958.1 |
| 20260830204757 | 57 | 30 | 0.0 | 4.0 | 0.00 | 0.00 | 0.00 | 97 | 957.9 |
| 20260830204257 | 57 | 72 | 0.0 | 4.0 | 0.00 | 0.00 | 0.00 | 97 | 958.0 |
| 20260830203757 | 57 | 119 | 0.0 | 3.0 | 0.00 | 0.00 | 0.00 | 97 | 958.0 |
| 20260830203256 | 57 | 19 | 1.0 | 4.0 | 0.00 | 0.00 | 0.00 | 97 | 957.8 |
| 20260830202756 | 57 | 211 | 1.0 | 5.0 | 0.00 | 0.00 | 0.00 | 97 | 957.8 |
| 20260830202256 | 56 | 228 | 2.0 | 6.0 | 0.00 | 0.00 | 0.00 | 97 | 957.8 |
| 20260830201756 | 56 | 231 | 2.0 | 6.0 | 0.00 | 0.00 | 0.00 | 97 | 957.8 |
| 20260830201256 | 56 | 162 | 2.0 | 6.0 | 0.00 | 0.00 | 0.00 | 97 | 957.8 |
| 20260830200756 | 56 | 290 | 3.0 | 8.0 | 0.00 | 0.00 | 0.00 | 97 | 957.7 |
| 20260830200256 | 56 | 310 | 3.0 | 8.0 | 0.00 | 0.00 | 0.00 | 97 | 957.8 |
| 20260830195756 | 56 | 242 | 3.0 | 8.0 | 0.00 | 0.00 | 0.00 | 96 | 957.6 |
| 20260830195256 | 56 | 278 | 3.0 | 8.0 | 0.00 | 0.00 | 0.00 | 96 | 957.6 |
| 20260830194756 | 56 | 247 | 3.0 | 8.0 | 0.00 | 0.00 | 0.00 | 96 | 957.6 |
| 20260830194256 | 57 | 205 | 3.0 | 8.0 | 0.00 | 0.00 | 0.00 | 96 | 957.6 |
| 20260830193756 | 57 | 242 | 3.0 | 8.0 | 0.00 | 0.00 | 0.00 | 96 | 957.6 |
| 20260830193256 | 57 | 215 | 3.0 | 8.0 | 0.00 | 0.00 | 0.00 | 96 | 957.6 |
| 20260830192755 | 57 | 242 | 3.0 | 9.0 | 0.00 | 0.00 | 0.00 | 97 | 957.6 |
| 20260830192255 | 57 | 240 | 3.0 | 10.0 | 0.00 | 0.00 | 0.00 | 97 | 957.6 |
| 20260830191755 | 57 | 252 | 3.0 | 10.0 | 0.00 | 0.00 | 0.00 | 98 | 957.5 |
| 20260830191255 | 57 | 177 | 3.0 | 8.0 | 0.00 | 0.00 | 0.00 | 98 | 957.6 |
| 20260830190755 | 57 | 232 | 3.0 | 10.0 | 0.00 | 0.00 | 0.00 | 98 | 957.4 |
| 20260830190255 | 57 | 93 | 3.0 | 10.0 | 0.00 | 0.00 | 0.00 | 98 | 957.4 |
| 20260830185755 | 57 | 228 | 2.0 | 8.0 | 0.00 | 0.00 | 0.00 | 98 | 957.5 |
| 20260830185255 | 57 | 92 | 3.0 | 8.0 | 0.00 | 0.00 | 0.00 | 98 | 957.4 |
| 20260830184755 | 57 | 229 | 4.0 | 10.0 | 0.00 | 0.00 | 0.00 | 98 | 957.1 |
| 20260830184255 | 57 | 237 | 4.0 | 10.0 | 0.00 | 0.00 | 0.00 | 98 | 957.3 |
| 20260830183755 | 57 | 223 | 3.0 | 10.0 | 0.00 | 0.00 | 0.00 | 98 | 957.3 |
| 20260830183255 | 57 | 226 | 3.0 | 10.0 | 0.00 | 0.00 | 0.00 | 98 | 957.6 |
| 20260830182755 | 57 | 219 | 3.0 | 9.0 | 0.00 | 0.00 | 0.00 | 98 | 957.5 |
| 20260830182255 | 58 | 145 | 3.0 | 9.0 | 0.00 | 0.00 | 0.00 | 98 | 957.3 |
| 20260830181755 | 58 | 252 | 3.0 | 8.0 | 0.00 | 0.00 | 0.00 | 97 | 957.3 |
| 20260830181254 | 58 | 220 | 3.0 | 8.0 | 0.00 | 0.00 | 0.00 | 97 | 957.3 |
| 20260830180754 | 58 | 164 | 3.0 | 9.0 | 0.00 | 0.00 | 0.00 | 97 | 957.2 |
| 20260830180254 | 58 | 229 | 4.0 | 9.0 | 0.00 | 0.00 | 0.00 | 97 | 957.3 |
| 20260830175754 | 58 | 255 | 4.0 | 9.0 | 0.00 | 0.00 | 0.00 | 97 | 957.1 |
| 20260830175254 | 58 | 219 | 3.0 | 9.0 | 0.00 | 0.00 | 0.00 | 97 | 957.0 |
| 20260830174754 | 58 | 235 | 3.0 | 9.0 | 0.00 | 0.00 | 0.00 | 97 | 957.0 |
| 20260830174254 | 58 | 175 | 3.0 | 10.0 | 0.00 | 0.00 | 0.00 | 97 | 957.0 |
| 20260830173754 | 58 | 53 | 4.0 | 10.0 | 0.00 | 0.00 | 0.00 | 96 | 957.0 |
| 20260830173254 | 59 | 65 | 3.0 | 9.0 | 0.00 | 0.00 | 0.00 | 96 | 957.0 |
| 20260830172754 | 59 | 235 | 3.0 | 10.0 | 0.00 | 0.00 | 0.00 | 96 | 957.0 |
| 20260830172254 | 59 | 243 | 3.0 | 10.0 | 0.00 | 0.00 | 0.00 | 96 | 957.0 |
| 20260830171754 | 59 | 214 | 4.0 | 10.0 | 0.00 | 0.00 | 0.00 | 95 | 957.0 |
| 20260830171254 | 59 | 247 | 4.0 | 10.0 | 0.00 | 0.00 | 0.00 | 95 | 956.9 |
| 20260830170754 | 59 | 210 | 4.0 | 12.0 | 0.00 | 0.00 | 0.00 | 95 | 956.9 |
| 20260830170254 | 59 | 199 | 4.0 | 12.0 | 0.00 | 0.00 | 0.00 | 94 | 956.6 |
| 20260830165754 | 59 | 230 | 4.0 | 11.0 | 0.00 | 0.00 | 0.00 | 94 | 956.5 |
| 20260830165254 | 60 | 226 | 4.0 | 11.0 | 0.00 | 0.00 | 0.00 | 95 | 956.5 |
| 20260830164753 | 59 | 228 | 4.0 | 11.0 | 0.00 | 0.00 | 0.00 | 95 | 956.5 |
| 20260830164253 | 60 | 257 | 4.0 | 11.0 | 0.00 | 0.00 | 0.00 | 94 | 956.5 |
| 20260830163753 | 60 | 226 | 5.0 | 12.0 | 0.00 | 0.00 | 0.00 | 95 | 956.5 |
| 20260830163253 | 60 | 240 | 5.0 | 13.0 | 0.00 | 0.00 | 0.00 | 94 | 956.6 |
| 20260830162753 | 60 | 242 | 5.0 | 13.0 | 0.00 | 0.00 | 0.00 | 94 | 956.5 |
| 20260830162253 | 60 | 211 | 6.0 | 13.0 | 0.00 | 0.00 | 0.00 | 94 | 956.5 |
| 20260830161753 | 60 | 205 | 6.0 | 15.0 | 0.00 | 0.00 | 0.00 | 93 | 956.4 |
| 20260830161253 | 60 | 223 | 6.0 | 15.0 | 0.00 | 0.00 | 0.00 | 92 | 956.5 |
| 20260830160753 | 61 | 151 | 6.0 | 15.0 | 0.00 | 0.00 | 0.00 | 92 | 956.4 |
| 20260830160253 | 61 | 215 | 6.0 | 16.0 | 0.00 | 0.00 | 0.00 | 91 | 956.4 |
| 20260830155753 | 61 | 230 | 6.0 | 16.0 | 0.00 | 0.00 | 0.00 | 90 | 956.5 |
| 20260830155253 | 61 | 245 | 6.0 | 15.0 | 0.00 | 0.00 | 0.00 | 90 | 956.5 |
| 20260830154753 | 62 | 231 | 6.0 | 14.0 | 0.00 | 0.00 | 0.00 | 91 | 956.4 |
| 20260830154253 | 62 | 246 | 5.0 | 14.0 | 0.00 | 0.00 | 0.00 | 92 | 956.4 |
| 20260830153753 | 62 | 230 | 5.0 | 12.0 | 0.00 | 0.00 | 0.00 | 91 | 956.3 |
| 20260830153253 | 62 | 237 | 5.0 | 13.0 | 0.00 | 0.00 | 0.00 | 88 | 956.3 |
| 20260830152752 | 63 | 245 | 5.0 | 14.0 | 0.00 | 0.00 | 0.00 | 84 | 956.2 |
| 20260830152252 | 64 | 197 | 4.0 | 14.0 | 0.00 | 0.00 | 0.00 | 86 | 956.3 |
| 20260830151752 | 65 | 182 | 3.0 | 11.0 | 0.00 | 0.00 | 0.00 | 82 | 956.2 |
| 20260830151252 | 65 | 217 | 3.0 | 10.0 | 0.00 | 0.00 | 0.00 | 78 | 956.3 |
| 20260830150752 | 66 | 176 | 3.0 | 13.0 | 0.00 | 0.00 | 0.00 | 78 | 956.2 |
| 20260830150252 | 66 | 219 | 3.0 | 13.0 | 0.00 | 0.00 | 0.00 | 75 | 956.1 |
| 20260830145752 | 68 | 161 | 2.0 | 8.0 | 0.00 | 0.00 | 0.00 | 74 | 956.3 |
| 20260830145252 | 70 | 59 | 2.0 | 8.0 | 0.00 | 0.00 | 0.00 | 72 | 956.2 |
| 20260830144752 | 70 | 22 | 2.0 | 8.0 | 0.00 | 0.00 | 0.00 | 71 | 956.3 |
| 20260830144252 | 71 | 262 | 2.0 | 7.0 | 0.00 | 0.00 | 0.00 | 68 | 956.1 |
| 20260830143752 | 71 | 64 | 2.0 | 9.0 | 0.00 | 0.00 | 0.00 | 67 | 956.1 |
| 20260830143252 | 70 | 358 | 2.0 | 9.0 | 0.00 | 0.00 | 0.00 | 72 | 956.2 |
| 20260830142752 | 69 | 86 | 2.0 | 9.0 | 0.00 | 0.00 | 0.00 | 70 | 956.3 |
| 20260830142252 | 69 | 148 | 2.0 | 5.0 | 0.00 | 0.00 | 0.00 | 72 | 956.0 |
| 20260830141751 | 68 | 91 | 2.0 | 8.0 | 0.00 | 0.00 | 0.00 | 73 | 956.2 |
| 20260830141251 | 67 | 133 | 2.0 | 8.0 | 0.00 | 0.00 | 0.00 | 73 | 956.1 |
| 20260830140751 | 68 | 158 | 1.0 | 6.0 | 0.00 | 0.00 | 0.00 | 72 | 956.0 |
| 20260830140251 | 69 | 179 | 1.0 | 5.0 | 0.00 | 0.00 | 0.00 | 74 | 956.1 |
| 20260830135751 | 69 | 89 | 1.0 | 7.0 | 0.00 | 0.00 | 0.00 | 73 | 956.1 |
| 20260830135251 | 70 | 6 | 1.0 | 7.0 | 0.00 | 0.00 | 0.00 | 73 | 956.0 |
| 20260830134751 | 70 | 163 | 1.0 | 5.0 | 0.00 | 0.00 | 0.00 | 73 | 956.0 |
| 20260830134251 | 70 | 173 | 1.0 | 4.0 | 0.00 | 0.00 | 0.00 | 75 | 956.0 |
| 20260830133751 | 70 | 242 | 1.0 | 5.0 | 0.00 | 0.00 | 0.00 | 74 | 955.9 |
| 20260830133251 | 70 | 277 | 1.0 | 5.0 | 0.00 | 0.00 | 0.00 | 73 | 955.8 |
| 20260830132751 | 71 | 263 | 1.0 | 5.0 | 0.00 | 0.00 | 0.00 | 70 | 956.0 |
| 20260830132251 | 71 | 219 | 1.0 | 5.0 | 0.00 | 0.00 | 0.00 | 70 | 955.8 |
| 20260830131751 | 72 | 218 | 1.0 | 3.0 | 0.00 | 0.00 | 0.00 | 69 | 955.9 |
| 20260830131251 | 72 | 232 | 1.0 | 3.0 | 0.00 | 0.00 | 0.00 | 68 | 955.9 |
| 20260830130751 | 72 | 212 | 1.0 | 4.0 | 0.00 | 0.00 | 0.00 | 69 | 955.8 |
| 20260830130251 | 72 | 55 | 1.0 | 5.0 | 0.00 | 0.00 | 0.00 | 68 | 955.8 |
| 20260830125751 | 71 | 226 | 1.0 | 5.0 | 0.00 | 0.00 | 0.00 | 71 | 955.7 |
| 20260830125250 | 71 | 126 | 1.0 | 5.0 | 0.00 | 0.00 | 0.00 | 70 | 955.8 |
| 20260830124750 | 70 | 237 | 1.0 | 6.0 | 0.00 | 0.00 | 0.00 | 69 | 955.6 |
| 20260830124250 | 72 | 236 | 1.0 | 6.0 | 0.00 | 0.00 | 0.00 | 65 | 955.6 |
| 20260830123750 | 71 | 89 | 1.0 | 6.0 | 0.00 | 0.00 | 0.00 | 67 | 955.7 |
| 20260830123250 | 71 | 235 | 2.0 | 6.0 | 0.00 | 0.00 | 0.00 | 69 | 955.8 |
| 20260830122750 | 69 | 268 | 2.0 | 6.0 | 0.00 | 0.00 | 0.00 | 69 | 955.8 |
| 20260830122250 | 71 | 169 | 1.0 | 5.0 | 0.00 | 0.00 | 0.00 | 67 | 955.8 |
| 20260830121720 | 70 | 132 | 1.0 | 5.0 | 0.00 | 0.00 | 0.00 | 68 | 955.8 |
| 20260830121220 | 70 | 163 | 1.0 | 4.0 | 0.00 | 0.00 | 0.00 | 73 | 955.7 |
| 20260830120720 | 69 | 46 | 1.0 | 4.0 | 0.00 | 0.00 | 0.00 | 76 | 955.7 |
| 20260830120220 | 69 | 233 | 1.0 | 4.0 | 0.00 | 0.00 | 0.00 | 78 | 955.8 |
| 20260830115720 | 68 | 265 | 1.0 | 4.0 | 0.00 | 0.00 | 0.00 | 78 | 955.8 |
| 20260830115220 | 69 | 221 | 1.0 | 5.0 | 0.00 | 0.00 | 0.00 | 79 | 955.7 |
| 20260830114720 | 68 | 121 | 1.0 | 5.0 | 0.00 | 0.00 | 0.00 | 80 | 955.8 |
| 20260830114220 | 67 | 110 | 1.0 | 6.0 | 0.00 | 0.00 | 0.00 | 82 | 955.7 |
| 20260830113719 | 66 | 164 | 1.0 | 6.0 | 0.00 | 0.00 | 0.00 | 83 | 955.7 |
| 20260830113220 | 66 | 249 | 2.0 | 6.0 | 0.00 | 0.00 | 0.00 | 85 | 955.8 |
| 20260830112719 | 65 | 109 | 2.0 | 6.0 | 0.00 | 0.00 | 0.00 | 85 | 955.8 |
| 20260830112219 | 66 | 287 | 2.0 | 6.0 | 0.00 | 0.00 | 0.00 | 84 | 955.8 |
| 20260830111719 | 65 | 159 | 2.0 | 6.0 | 0.00 | 0.00 | 0.00 | 84 | 955.9 |
| 20260830111219 | 65 | 209 | 2.0 | 6.0 | 0.00 | 0.00 | 0.00 | 86 | 955.8 |
| 20260830110719 | 65 | 120 | 2.0 | 6.0 | 0.00 | 0.00 | 0.00 | 85 | 955.7 |
| 20260830110219 | 64 | 132 | 2.0 | 8.0 | 0.00 | 0.00 | 0.00 | 87 | 955.7 |
| 20260830105719 | 64 | 107 | 3.0 | 8.0 | 0.00 | 0.00 | 0.00 | 88 | 955.8 |
| 20260830105219 | 63 | 94 | 3.0 | 8.0 | 0.00 | 0.00 | 0.00 | 88 | 955.7 |
| 20260830104719 | 63 | 79 | 3.0 | 8.0 | 0.00 | 0.00 | 0.00 | 88 | 955.7 |
| 20260830104219 | 63 | 87 | 4.0 | 9.0 | 0.00 | 0.00 | 0.00 | 90 | 955.7 |
| 20260830103719 | 62 | 113 | 5.0 | 9.0 | 0.00 | 0.00 | 0.00 | 89 | 955.7 |
| 20260830103219 | 62 | 85 | 5.0 | 9.0 | 0.00 | 0.00 | 0.00 | 89 | 955.6 |
| 20260830102719 | 63 | 91 | 4.0 | 7.0 | 0.00 | 0.00 | 0.00 | 89 | 955.7 |
| 20260830102218 | 63 | 66 | 4.0 | 8.0 | 0.00 | 0.00 | 0.00 | 91 | 955.7 |
| 20260830101718 | 63 | 101 | 3.0 | 8.0 | 0.00 | 0.00 | 0.00 | 89 | 955.8 |
| 20260830101218 | 64 | 97 | 2.0 | 8.0 | 0.00 | 0.00 | 0.00 | 90 | 955.8 |
| 20260830100718 | 64 | 234 | 3.0 | 7.0 | 0.00 | 0.00 | 0.00 | 92 | 955.8 |
| 20260830100218 | 62 | 130 | 4.0 | 7.0 | 0.00 | 0.00 | 0.00 | 95 | 955.6 |
| 20260830095718 | 62 | 73 | 5.0 | 8.0 | 0.00 | 0.00 | 0.00 | 96 | 955.6 |
| 20260830095218 | 61 | 108 | 5.0 | 8.0 | 0.00 | 0.00 | 0.00 | 97 | 955.5 |
| 20260830094718 | 61 | 56 | 5.0 | 8.0 | 0.00 | 0.00 | 0.00 | 95 | 955.6 |
| 20260830094218 | 61 | 79 | 5.0 | 7.0 | 0.00 | 0.00 | 0.00 | 98 | 955.6 |
| 20260830093718 | 61 | 72 | 4.0 | 7.0 | 0.00 | 0.00 | 0.00 | 97 | 955.5 |
| 20260830093218 | 61 | 67 | 4.0 | 6.0 | 0.00 | 0.00 | 0.00 | 97 | 955.6 |
| 20260830092718 | 61 | 71 | 3.0 | 6.0 | 0.00 | 0.00 | 0.00 | 98 | 955.6 |
| 20260830092218 | 60 | 109 | 4.0 | 6.0 | 0.00 | 0.00 | 0.00 | 98 | 955.6 |
| 20260830091718 | 60 | 91 | 5.0 | 7.0 | 0.00 | 0.00 | 0.00 | 99 | 955.6 |
| 20260830091148 | 59 | 119 | 5.0 | 7.0 | 0.00 | 0.00 | 0.00 | 99 | 955.6 |
| 20260830090648 | 59 | 107 | 5.0 | 8.0 | 0.00 | 0.00 | 0.00 | 99 | 955.5 |
| 20260830090148 | 60 | 67 | 4.0 | 8.0 | 0.00 | 0.00 | 0.00 | 98 | 955.6 |
| 20260830085647 | 60 | 59 | 4.0 | 7.0 | 0.00 | 0.00 | 0.00 | 98 | 955.5 |